Location: Caltech
(34.1382°N, 118.1253°W)
Time: 19:18:39
(UTC-07:00)

Iridium 3 - Visible Passes

Search period start: 22 September 2014 00:00
Search period end: 02 October 2014 00:00
Orbit: 776 x 779 km, 86.4° (Epoch: 22 September)

Date Brightness Start Highest point End Pass type
(mag) Time Alt. Az. Time Alt. Az. Time Alt. Az.
23 Sep 8.2 21:52:47 12° N 21:52:47 12° N 21:53:04 10° N visible
24 Sep 8.0 21:19:10 12° NNE 21:19:10 12° NNE 21:19:28 10° NNE visible
26 Sep 8.1 21:52:18 14° NNW 21:52:18 14° NNW 21:53:03 10° N visible
27 Sep 7.7 21:18:36 17° N 21:18:36 17° N 21:19:40 10° N visible
28 Sep 7.5 20:44:51 16° NNE 20:44:51 16° NNE 20:45:55 10° NNE visible
28 Sep 8.5 22:25:18 10° NW 22:25:18 10° NW 22:25:20 10° NW visible
29 Sep 7.6 20:11:03 12° NE 20:11:03 12° NE 20:11:39 10° NNE visible
29 Sep 7.9 21:51:30 17° NNW 21:51:30 17° NNW 21:52:51 10° NNW visible
30 Sep 7.3 21:17:37 25° N 21:17:37 25° N 21:19:44 10° N visible
01 Oct 6.8 20:43:40 29° NNE 20:43:40 29° NNE 20:46:13 10° N visible
